Location: Czekanka
(50.4925°N, 19.2643°E)
Time: 15:21:13
(UTC+00:00)

SL-16 R/B - Pass Details

Date: 22 September 2024
Orbit: 842 x 846 km, 71.0° (Epoch: 07 October)

Event Time Altitude Azimuth Distance (km) Brightness Sun altitude
Rises 23:54:38 0° 327° (NNW) 3,413 5.7 -36.6°
Reaches altitude 10° 23:59:09 10° 0° (N) 2,474 5.3 -36.3°
Maximum altitude 00:00:59 11° 19° (NNE) 2,369 5.3 -36.1°
Drops below altitude 10° 00:02:48 10° 38° (NE) 2,472 5.4 -36.0°
Sets 00:07:18 0° 71° (ENE) 3,404 5.9 -35.7°
